Location: Newark
(45.2500°N, 7.5833°E)
Time: 09:01:46
(UTC+00:00)

NUDT-PHONESAT - Pass Details

Date: 27 February 2020
Orbit: 486 x 502 km, 97.4° (Epoch: 07 April)

Event Time Altitude Azimuth Distance (km) Brightness Sun altitude
Rises 17:37:10 0° 184° (S) 2,544 ? -5.0°
Reaches altitude 10° 17:39:19 10° 192° (SSW) 1,670 ? -5.4°
Maximum altitude 17:42:41 38° 262° (W) 760 ? -6.0°
Drops below altitude 10° 17:46:07 10° 332° (NNW) 1,690 ? -6.6°
Sets 17:48:18 0° 340° (NNW) 2,579 ? -6.9°
